When you browse on this site, cookies collect data to enhance your experience and personalize the content and advertising you see.
Visit our Privacy Policy to learn more. By continuing to use the site, you agree to this use of cookies and data.
  • In Deutschland
  • Länderverzeichnis
  • Für 7 Tage
  • Wassertemperatur
  • Satellitenkarten
  • Wetterkarte
  • Widgets
  • user-avatar
    Anmelden

    Stündliche Wetter Minsk

    Heute, 23 Juli, Dienstag

    Zeit Temperatur Niederschläge Wind Luftdruck Luftfeuchtigkeit
    00:00 +15°C° 0 mm 5 m/S 741 mmHg 95%
    01:00 +15°C° 0 mm 5 m/S 741 mmHg 94%
    02:00 +14°C° 0 mm 5 m/S 741 mmHg 94%
    03:00 +14°C° 0 mm 5 m/S 741 mmHg 94%
    04:00 +14°C° 0 mm 5 m/S 741 mmHg 94%
    05:00 +14°C° 0 mm 5 m/S 741 mmHg 93%
    06:00 +14°C° 0.2 mm 5 m/S 741 mmHg 93%
    07:00 +15°C° 0.2 mm 6 m/S 741 mmHg 93%
    08:00 +15°C° 0.2 mm 6 m/S 741 mmHg 92%
    09:00 +15°C° 0.6 mm 6 m/S 741 mmHg 92%
    10:00 +15°C° 0.6 mm 5 m/S 741 mmHg 92%
    11:00 +16°C° 0.6 mm 5 m/S 741 mmHg 92%
    12:00 +17°C° 0.4 mm 4 m/S 741 mmHg 90%
    13:00 +18°C° 0.4 mm 4 m/S 741 mmHg 88%
    14:00 +18°C° 0.4 mm 4 m/S 741 mmHg 86%
    15:00 +19°C° 0.6 mm 4 m/S 741 mmHg 83%
    16:00 +20°C° 0.6 mm 4 m/S 741 mmHg 81%
    17:00 +21°C° 0.6 mm 5 m/S 741 mmHg 78%
    18:00 +20°C° 0.2 mm 4 m/S 740 mmHg 81%
    19:00 +19°C° 0.2 mm 4 m/S 740 mmHg 84%
    20:00 +18°C° 0.2 mm 4 m/S 740 mmHg 88%
    21:00 +17°C° 0 mm 4 m/S 740 mmHg 89%
    22:00 +17°C° 0 mm 4 m/S 740 mmHg 90%
    23:00 +15°C° 0 mm 4 m/S 740 mmHg 91%

    Morgen, 24 Juli, Mittwoch

    Zeit Temperatur Niederschläge Wind Luftdruck Luftfeuchtigkeit
    00:00 +15°C° 0 mm 4 m/S 740 mmHg 91%
    01:00 +14°C° 0 mm 4 m/S 740 mmHg 92%
    02:00 +14°C° 0 mm 4 m/S 740 mmHg 92%
    03:00 +14°C° 0 mm 4 m/S 740 mmHg 92%
    04:00 +13°C° 0 mm 4 m/S 741 mmHg 92%
    05:00 +13°C° 0 mm 4 m/S 741 mmHg 92%
    06:00 +15°C° 0 mm 4 m/S 741 mmHg 88%
    07:00 +17°C° 0 mm 4 m/S 741 mmHg 84%
    08:00 +19°C° 0 mm 4 m/S 741 mmHg 80%
    09:00 +20°C° 0 mm 4 m/S 742 mmHg 72%
    10:00 +22°C° 0 mm 4 m/S 742 mmHg 65%
    11:00 +23°C° 0 mm 5 m/S 742 mmHg 57%
    12:00 +23°C° 0 mm 5 m/S 742 mmHg 56%
    13:00 +25°C° 0 mm 5 m/S 742 mmHg 55%
    14:00 +25°C° 0 mm 5 m/S 742 mmHg 54%
    15:00 +25°C° 0 mm 5 m/S 742 mmHg 58%
    16:00 +23°C° 0 mm 5 m/S 742 mmHg 61%
    17:00 +23°C° 0 mm 4 m/S 742 mmHg 65%
    18:00 +21°C° 0 mm 4 m/S 742 mmHg 67%
    19:00 +20°C° 0 mm 4 m/S 742 mmHg 70%
    20:00 +18°C° 0 mm 3 m/S 742 mmHg 73%
    21:00 +17°C° 0 mm 3 m/S 742 mmHg 75%
    22:00 +17°C° 0 mm 3 m/S 742 mmHg 76%
    23:00 +16°C° 0 mm 2 m/S 743 mmHg 78%

    übermorgen, 25 Juli, Donnerstag

    Zeit Temperatur Niederschläge Wind Luftdruck Luftfeuchtigkeit
    00:00 +16°C° 0 mm 3 m/S 743 mmHg 78%
    01:00 +14°C° 0 mm 3 m/S 743 mmHg 79%
    02:00 +14°C° 0 mm 3 m/S 743 mmHg 80%
    03:00 +14°C° 0 mm 3 m/S 743 mmHg 80%
    04:00 +14°C° 0 mm 3 m/S 743 mmHg 80%
    05:00 +14°C° 0 mm 4 m/S 743 mmHg 81%
    06:00 +15°C° 0.1 mm 4 m/S 743 mmHg 80%
    07:00 +17°C° 0.1 mm 5 m/S 742 mmHg 80%
    08:00 +19°C° 0.1 mm 5 m/S 742 mmHg 79%
    09:00 +20°C° 0.9 mm 6 m/S 742 mmHg 77%
    10:00 +21°C° 0.9 mm 6 m/S 742 mmHg 75%
    11:00 +22°C° 0.9 mm 6 m/S 742 mmHg 73%
    12:00 +22°C° 1.1 mm 7 m/S 742 mmHg 73%
    13:00 +22°C° 1.1 mm 7 m/S 741 mmHg 73%
    14:00 +22°C° 1.1 mm 7 m/S 741 mmHg 74%
    15:00 +21°C° 0.4 mm 7 m/S 741 mmHg 74%
    16:00 +21°C° 0.4 mm 6 m/S 741 mmHg 75%
    17:00 +21°C° 0.4 mm 5 m/S 741 mmHg 76%
    18:00 +20°C° 0.2 mm 4 m/S 741 mmHg 80%
    19:00 +18°C° 0.2 mm 4 m/S 741 mmHg 85%
    20:00 +17°C° 0.2 mm 3 m/S 741 mmHg 89%
    21:00 +16°C° 0 mm 3 m/S 741 mmHg 91%
    22:00 +16°C° 0 mm 3 m/S 741 mmHg 92%
    23:00 +14°C° 0 mm 3 m/S 740 mmHg 93%

    26 Juli, Freitag

    Zeit Temperatur Niederschläge Wind Luftdruck Luftfeuchtigkeit
    00:00 +14°C° 0 mm 3 m/S 740 mmHg 94%
    01:00 +13°C° 0 mm 3 m/S 740 mmHg 94%
    02:00 +13°C° 0 mm 3 m/S 740 mmHg 95%
    03:00 +13°C° 0 mm 4 m/S 740 mmHg 95%
    04:00 +13°C° 0 mm 4 m/S 740 mmHg 95%
    05:00 +13°C° 0 mm 4 m/S 740 mmHg 96%
    06:00 +14°C° 0 mm 5 m/S 740 mmHg 95%
    07:00 +15°C° 0 mm 5 m/S 740 mmHg 95%
    08:00 +15°C° 0 mm 5 m/S 740 mmHg 94%
    09:00 +16°C° 0 mm 5 m/S 741 mmHg 93%
    10:00 +16°C° 0 mm 5 m/S 741 mmHg 92%
    11:00 +18°C° 0 mm 4 m/S 741 mmHg 91%
    12:00 +18°C° 0.4 mm 4 m/S 741 mmHg 91%
    13:00 +17°C° 0.4 mm 5 m/S 741 mmHg 92%
    14:00 +19°C° 0.4 mm 5 m/S 741 mmHg 92%
    15:00 +19°C° 0.1 mm 5 m/S 741 mmHg 91%
    16:00 +19°C° 0.1 mm 5 m/S 741 mmHg 90%
    17:00 +19°C° 0.1 mm 5 m/S 741 mmHg 90%
    18:00 +19°C° 0 mm 5 m/S 741 mmHg 90%
    19:00 +19°C° 0 mm 4 m/S 741 mmHg 91%
    20:00 +19°C° 0 mm 4 m/S 741 mmHg 92%
    21:00 +18°C° 0 mm 4 m/S 741 mmHg 93%
    22:00 +18°C° 0 mm 4 m/S 741 mmHg 93%
    23:00 +17°C° 0 mm 4 m/S 742 mmHg 94%

    27 Juli, Samstag

    Zeit Temperatur Niederschläge Wind Luftdruck Luftfeuchtigkeit
    00:00 +17°C° 0 mm 4 m/S 742 mmHg 94%
    01:00 +17°C° 0 mm 4 m/S 742 mmHg 95%
    02:00 +17°C° 0 mm 4 m/S 741 mmHg 95%
    03:00 +17°C° 0 mm 4 m/S 742 mmHg 95%
    04:00 +15°C° 0 mm 4 m/S 742 mmHg 95%
    05:00 +15°C° 0 mm 4 m/S 742 mmHg 96%
    06:00 +18°C° 0 mm 4 m/S 742 mmHg 92%
    07:00 +19°C° 0 mm 4 m/S 742 mmHg 89%
    08:00 +20°C° 0 mm 4 m/S 742 mmHg 86%
    09:00 +22°C° 0.1 mm 4 m/S 742 mmHg 80%
    10:00 +23°C° 0.1 mm 5 m/S 743 mmHg 74%
    11:00 +25°C° 0.1 mm 5 m/S 743 mmHg 68%
    12:00 +26°C° 0.2 mm 5 m/S 742 mmHg 67%
    13:00 +26°C° 0.2 mm 5 m/S 742 mmHg 66%
    14:00 +27°C° 0.2 mm 5 m/S 742 mmHg 64%
    15:00 +26°C° 0.2 mm 5 m/S 742 mmHg 67%
    16:00 +26°C° 0.2 mm 5 m/S 742 mmHg 69%
    17:00 +26°C° 0.2 mm 5 m/S 741 mmHg 72%
    18:00 +25°C° 0.1 mm 4 m/S 741 mmHg 76%
    19:00 +22°C° 0.1 mm 4 m/S 741 mmHg 80%
    20:00 +21°C° 0.1 mm 3 m/S 741 mmHg 84%
    21:00 +20°C° 0 mm 3 m/S 741 mmHg 85%
    22:00 +20°C° 0 mm 3 m/S 741 mmHg 87%
    23:00 +19°C° 0 mm 3 m/S 741 mmHg 89%

    28 Juli, Sonntag

    Zeit Temperatur Niederschläge Wind Luftdruck Luftfeuchtigkeit
    00:00 +19°C° 0 mm 3 m/S 741 mmHg 90%
    01:00 +18°C° 0 mm 3 m/S 741 mmHg 91%
    02:00 +18°C° 0 mm 3 m/S 741 mmHg 93%
    03:00 +18°C° 0 mm 3 m/S 741 mmHg 93%
    04:00 +18°C° 0 mm 3 m/S 741 mmHg 93%
    05:00 +17°C° 0 mm 3 m/S 741 mmHg 93%
    06:00 +19°C° 0 mm 3 m/S 741 mmHg 89%
    07:00 +20°C° 0 mm 3 m/S 741 mmHg 85%
    08:00 +22°C° 0 mm 3 m/S 741 mmHg 81%
    09:00 +24°C° 0 mm 3 m/S 741 mmHg 76%
    10:00 +26°C° 0 mm 3 m/S 741 mmHg 71%
    11:00 +27°C° 0 mm 4 m/S 741 mmHg 66%
    12:00 +28°C° 0.1 mm 4 m/S 741 mmHg 63%
    13:00 +28°C° 0.1 mm 4 m/S 740 mmHg 61%
    14:00 +29°C° 0.1 mm 4 m/S 740 mmHg 58%
    15:00 +28°C° 0 mm 3 m/S 740 mmHg 60%
    16:00 +28°C° 0 mm 3 m/S 740 mmHg 62%
    17:00 +28°C° 0 mm 3 m/S 740 mmHg 64%
    18:00 +26°C° 0.3 mm 3 m/S 740 mmHg 72%
    19:00 +23°C° 0.3 mm 4 m/S 740 mmHg 80%
    20:00 +21°C° 0.3 mm 4 m/S 740 mmHg 88%
    21:00 +21°C° 0 mm 4 m/S 740 mmHg 90%
    22:00 +20°C° 0 mm 4 m/S 740 mmHg 92%
    23:00 +19°C° 0 mm 3 m/S 741 mmHg 94%
    Mehr zeigen